TimeEST,TemperatureF,Dew PointF,Humidity,Sea Level PressureIn,VisibilityMPH,Wind Direction,Wind SpeedMPH,Gust SpeedMPH,PrecipitationIn,Events,Conditions,WindDirDegrees,DateUTC
12:15 AM,35.6,34.7,97,29.94,2.0,Calm,Calm,-,0.04,Rain,Light Rain,0,2012-12-08 05:15:00
12:35 AM,35.1,34.2,97,29.93,1.2,North,3.5,-,0.05,Rain,Rain,360,2012-12-08 05:35:00
12:55 AM,34.9,34.0,97,29.92,2.0,Calm,Calm,-,N/A,,Drizzle,0,2012-12-08 05:55:00
1:15 AM,35.1,34.2,97,29.92,3.0,Calm,Calm,-,N/A,,Light Drizzle,0,2012-12-08 06:15:00
1:35 AM,35.2,34.3,97,29.91,3.0,Calm,Calm,-,N/A,,Overcast,0,2012-12-08 06:35:00
1:55 AM,35.4,34.5,97,29.91,3.0,Calm,Calm,-,N/A,Rain,Rain,0,2012-12-08 06:55:00
2:15 AM,35.1,34.2,97,29.91,5.0,Calm,Calm,-,0.01,Rain,Rain,0,2012-12-08 07:15:00
2:35 AM,35.4,34.5,97,29.90,4.0,Calm,Calm,-,0.02,Rain,Light Rain,0,2012-12-08 07:35:00
2:55 AM,35.2,34.3,97,29.91,4.0,Calm,Calm,-,N/A,Rain,Rain,0,2012-12-08 07:55:00
3:15 AM,35.2,34.3,97,29.90,2.0,Calm,Calm,-,0.02,Rain,Rain,0,2012-12-08 08:15:00
3:35 AM,35.2,34.3,97,29.90,4.0,Calm,Calm,-,0.04,Rain,Rain,0,2012-12-08 08:35:00
3:55 AM,35.6,34.7,97,29.89,7.0,Calm,Calm,-,N/A,,Overcast,0,2012-12-08 08:55:00
4:15 AM,35.4,34.5,97,29.89,7.0,Calm,Calm,-,N/A,,Overcast,0,2012-12-08 09:15:00
4:35 AM,35.6,34.7,97,29.88,7.0,Calm,Calm,-,N/A,,Overcast,0,2012-12-08 09:35:00
5:53 AM,35.6,35.6,100,29.88,3.0,Calm,Calm,-,N/A,,Overcast,0,2012-12-08 10:53:00
6:53 AM,35.6,35.6,100,29.89,4.0,Calm,Calm,-,N/A,,Overcast,0,2012-12-08 11:53:00
7:53 AM,37.4,35.6,93,29.88,3.0,Calm,Calm,-,N/A,,Overcast,0,2012-12-08 12:53:00
8:53 AM,39.2,37.4,93,29.89,5.0,WSW,5.8,-,N/A,,Overcast,240,2012-12-08 13:53:00
9:53 AM,41.0,39.2,93,29.88,4.0,Calm,Calm,-,N/A,,Overcast,0,2012-12-08 14:53:00
10:53 AM,44.6,42.8,93,29.86,5.0,WSW,4.6,-,N/A,,Scattered Clouds,240,2012-12-08 15:53:00
11:53 AM,48.2,44.6,87,29.84,7.0,SSW,9.2,-,N/A,,Clear,210,2012-12-08 16:53:00
12:53 PM,51.8,44.6,76,29.83,10.0,SSW,11.5,-,N/A,,Mostly Cloudy,210,2012-12-08 17:53:00
1:53 PM,53.6,46.4,77,29.83,10.0,SSW,11.5,-,N/A,,Overcast,210,2012-12-08 18:53:00
2:53 PM,53.6,46.4,77,29.84,10.0,SSW,5.8,-,N/A,,Overcast,210,2012-12-08 19:53:00
3:53 PM,53.6,46.4,77,29.85,10.0,SSW,5.8,-,N/A,,Overcast,210,2012-12-08 20:53:00
4:53 PM,53.6,46.4,77,29.86,10.0,Calm,Calm,-,N/A,Rain,Light Rain,0,2012-12-08 21:53:00
5:53 PM,51.8,48.2,88,29.90,10.0,West,6.9,-,N/A,,Overcast,260,2012-12-08 22:53:00
6:53 PM,51.8,48.2,88,29.92,10.0,Calm,Calm,-,N/A,,Overcast,0,2012-12-08 23:53:00
7:53 PM,51.8,46.4,82,29.95,10.0,West,4.6,-,N/A,,Overcast,280,2012-12-09 00:53:00
8:15 PM,51.1,45.7,82,29.96,10.0,Calm,Calm,-,N/A,,Overcast,0,2012-12-09 01:15:00
8:35 PM,51.6,44.8,77,29.96,10.0,West,5.8,-,N/A,,Overcast,270,2012-12-09 01:35:00
8:55 PM,51.3,45.0,79,29.98,10.0,West,3.5,-,N/A,,Overcast,270,2012-12-09 01:55:00
9:15 PM,51.3,44.2,77,29.98,10.0,West,4.6,-,N/A,,Overcast,280,2012-12-09 02:15:00
9:35 PM,51.1,44.1,77,29.99,10.0,WNW,4.6,-,N/A,,Overcast,300,2012-12-09 02:35:00
9:55 PM,51.1,43.2,74,30.00,10.0,WNW,4.6,-,N/A,,Overcast,290,2012-12-09 02:55:00
10:15 PM,50.0,42.6,76,30.00,10.0,WNW,4.6,-,N/A,,Mostly Cloudy,300,2012-12-09 03:15:00
10:35 PM,50.4,41.0,70,30.01,10.0,WNW,3.5,-,N/A,,Overcast,300,2012-12-09 03:35:00
10:55 PM,50.0,40.6,70,30.03,10.0,WNW,6.9,-,N/A,,Overcast,290,2012-12-09 03:55:00
11:15 PM,49.5,39.9,70,30.03,10.0,NW,4.6,-,N/A,,Overcast,310,2012-12-09 04:15:00
11:35 PM,49.1,39.6,70,30.04,10.0,NW,5.8,-,N/A,,Mostly Cloudy,320,2012-12-09 04:35:00
11:55 PM,48.4,39.4,71,30.05,10.0,NW,5.8,-,N/A,,Mostly Cloudy,320,2012-12-09 04:55:00